Regional Weather Roundup
Issued by NWS Upton, NY

Current Version | Previous Version | Text Only | Print | Product List | Glossary Off
Versions: 1 2 3 4 5 6 7 8 9 10 11 12 13 14 15 16 17 18 19 20 21 22 23 24 25 26 27
000 ASUS41 KOKX 291908 RWROKX REGIONAL WEATHER ROUNDUP NATIONAL WEATHER SERVICE NEW YORK NY 300 PM EDT SAT APR 29 2017 NOTE: "FAIR" INDICATES FEW OR NO CLOUDS BELOW 12,000 FEET WITH NO SIGNIFICANT WEATHER AND/OR OBSTRUCTIONS TO VISIBILITY. NYZ071-072-176-178-NJZ106-104-292000- NEW YORK CITY METRO AREA CITY SKY/WX TMP DP RH WIND PRES REMARKS Central Park PTSUNNY 84 60 44 VRB7G17 29.98R Wall St Helipt PTCLDY 82 61 47 W16G22 29.97R Bronx Bot Gard N/A 84 59 42 W6 29.98R LaGuardia APRT CLOUDY 87 59 38 W15G25 29.95R Kennedy INTL CLOUDY 80 65 59 SW20 29.97R Breezy Point N/A 72 N/A N/A W13G20 N/A Newark/Liberty CLOUDY 85 61 44 W24G31 29.96R Teterboro CLOUDY 83 63 50 W10G28 29.95R $$ NYZ177-179-078>081-292000- LONG ISLAND NEW YORK CITY SKY/WX TMP DP RH WIND PRES REMARKS Jones Beach N/A 68 N/A N/A SW9G15 N/A Matinecock PT N/A 68 N/A N/A W20 N/A Farmingdale MOSUNNY 81 64 56 SW18G25 29.95S MacArthur/ISP PTSUNNY 80 63 55 SW20 29.94R Shirley CLOUDY 73 61 65 SW13G22 29.94R Mt Sinai Harb N/A 82 N/A N/A W9G18 N/A Westhampton MOSUNNY 73 60 63 SW15G23 29.95R East Hampton N/A 71 62 71 SW13 29.91S Montauk NOT AVBL $$ NYZ052-065-067-292000- HUDSON VALLEY CITY SKY/WX TMP DP RH WIND PRES REMARKS White Plains CLOUDY 81 62 52 NW10 29.95R Larchmont Harb N/A 81 N/A N/A W22G30 N/A Croton O-T Hud N/A 73 N/A N/A W14 N/A Newburgh PTSUNNY 79 63 57 W17 29.96R Montgomery PTSUNNY 81 59 47 W16G25 29.95R Poughkeepsie CLOUDY 81 59 47 W15G23 29.91S Albany CLOUDY 68 48 48 W20G26 29.97S $$ NJZ001-105-106-008-010-013-015-019>022-104-292000- NEW JERSEY CITY SKY/WX TMP DP RH WIND PRES REMARKS Newark/Liberty CLOUDY 85 61 44 W24G31 29.96R Teterboro CLOUDY 83 63 50 W10G28 29.95R Caldwell CLOUDY 84 60 44 W12G23 29.98R Somerville MOSUNNY 84 62 47 W12G18 29.98R Linden N/A 83 62 48 NW17 29.97R Perth Amboy N/A 79 N/A N/A W20 N/A Sussex CLOUDY 80 61 52 VRB7G21 30.00R Andover N/A 80 60 50 SW10G18 30.00R Trenton MOSUNNY 85 60 42 W17G29 30.01R Millville MOSUNNY 88 64 44 W17G30 30.01S Atlantic City MOSUNNY 91 58 32 W16G28 29.99S HX 90 Wrightstown SUNNY 85 65 51 W12 29.97S Toms River MOSUNNY 88 62 41 W16G25 30.00S Belmar CLOUDY 84 62 47 W20 30.00R $$ PAZ047>061-062-071-292000- EASTERN PENNSYLVANIA CITY SKY/WX TMP DP RH WIND PRES REMARKS Philadelphia PTSUNNY 87 62 43 SW17 30.02R Allentown PTSUNNY 82 62 50 W13G22 30.03R Scranton CLOUDY 75 60 59 W21G28 30.05R $$ CTZ002-004>006-009-010-012-RIZ004-006-007-MAZ004-011-015-292000- SOUTHERN NEW ENGLAND IN CT CITY SKY/WX TMP DP RH WIND PRES REMARKS Bradley INTL CLOUDY 83 58 42 W14 29.87F Hartford CLOUDY 83 59 44 W12G17 29.86F Danbury MOSUNNY 80 61 52 W9G25 29.94S Wtrbury/Oxford PTSUNNY 81 57 44 W12G21 29.94F Bridgeport MOSUNNY 75 58 55 SW18 29.91R Meriden CLOUDY 85 59 41 W12 29.89R New Haven CLOUDY 73 59 61 SW9G20 29.90S Chester N/A 81 63 54 SW13G18 29.89F Groton PTSUNNY 75 62 64 SW14G23 29.88S Wilimantic MOSUNNY 84 59 42 W12G23 29.87F IN RI CITY SKY/WX TMP DP RH WIND PRES REMARKS Providence PTSUNNY 84 63 49 W16G24 29.84F Block Island MOSUNNY 64 58 80 SW20 29.90F Westerly MOSUNNY 73 62 68 SW12G21 29.89F IN MA CITY SKY/WX TMP DP RH WIND PRES REMARKS Boston CLOUDY 83 58 42 W20G29 29.82S Worcester PTSUNNY 78 55 44 W15G26 29.88F Westfield CLOUDY 82 57 42 NW17G23 29.87S Provincetown CLOUDY 69 61 75 SW14 29.83F Nantucket FOG 55 52 89 SW15 29.88F VSB 1 $$ ANZ330-335-338-340-345-350-353-355-292000- COASTAL MARINE OBSERVATIONS STATION/POSITION TIME SKY/WX TEMP WIND PRES VSBY WAVE AIR SEA DIR/SP/G HT/PER (UTC) (F) (DEG/KT/KT) (MB) (MI) (FT/S) NY HARB ENTRANCE 1750 58 54 210/ 6/ 8 1015.1 3/ 8 20 S FIRE ISLAND 1850 54 50 210/ 12/ 14 1014.7 4/ 8 GREAT SOUTH BAY NOT AVBL 23 SSW MONTAUK P 1750 52 48 1014.1 4/ 8 15 E BARNEGAT LI 1830 55 N/A 4/ 8 HUDSON CANYON 1750 54 49 240/ 10/ 12 1016.3 5/ 6 KINGS POINT 1848 74 52 300/ 9/ 12 1014.1 EXECUTION ROCKS NOT AVBL CENTRAL LI SOUND 1845 59 230/ 12/ 12 N/A 0 EASTERN LI SOUND NOT AVBL ROBBINS REEF 1848 80 270/ 17/ 24 1014.8 $$ >>>>>>>>>>>>>>>>>>>>>>>>>>>> KEY <<<<<<<<<<<<<<<<<<<<<<<<<<< > < > SKY/WX - Sky Condition/Present Weather < > TMP - Temperature in Fahrenheit < > DP - Dew Point in Fahrenheit < > RH - Relative Humidity in Percent < > WIND - Direction (from) and Speed in MPH < > PRES - Mean Sea Level Pressure (inches of Hg) < > WCI - Wind Chill Index < > VSB - VISIBILITY IN MILES < > HX - HEAT INDEX < > TC - TEMPERATURE IN CELSIUS < > VRB - VARIABLE WIND DIRECTION < > < >>>>>>>>>>>>>>>>>>>>>>>>>>>> KEY <<<<<<<<<<<<<<<<<<<<<<<<<<<

USA.gov is the U.S. government's official web portal to all federal, state and local government web resources and services.